GW0135 Weather Reports


Display with metric or nautical units.
time (UTC)temp
F
wind
direction
speed
MPH
gust
MPH
rain 1hr
in
rain 24hr
in
rain mn
in
humidity
%
barometer
mb
20260509232010 67 158 3.0 3.0 0.00 0.00 0.10 60 970.2
20260509231509 67 154 3.0 3.0 0.00 0.00 0.10 60 970.5
20260509231010 68 164 4.0 4.0 0.00 0.00 0.10 59 970.2
20260509230010 68 180 3.0 3.0 0.00 0.00 0.10 59 970.5
20260509225037 68 170 7.0 7.0 0.00 0.00 0.10 59 970.2
20260509215920 69 173 3.0 3.0 0.00 0.00 0.10 59 970.2
20260509214420 67 250 4.0 4.0 0.00 0.00 0.10 58 970.2
20260509211420 65 157 5.0 5.0 0.00 0.00 0.10 61 970.5
20260509205920 65 171 6.0 6.0 0.00 0.00 0.10 63 970.9
20260509205421 65 231 4.0 4.0 0.00 0.00 0.10 64 970.9
20260509203920 65 176 2.0 2.0 0.00 0.00 0.10 65 970.9
20260509203420 65 144 2.0 2.0 0.00 0.00 0.10 65 971.2
20260509200921 64 135 3.0 3.0 0.00 0.00 0.10 67 971.2
20260509200421 65 228 3.0 3.0 0.00 0.00 0.10 66 971.2
20260509195421 63 219 3.0 3.0 0.00 0.00 0.10 68 971.9
20260509190421 63 153 4.0 4.0 0.00 0.00 0.10 71 971.9
20260509184421 63 133 3.0 3.0 0.00 0.00 0.10 70 971.9
20260509183421 62 158 3.0 3.0 0.00 0.00 0.10 71 971.9
20260509182920 64 158 3.0 3.0 0.00 0.00 0.10 71 971.9
20260509181921 61 209 3.0 3.0 0.00 0.00 0.10 76 972.2
20260509181420 62 223 4.0 4.0 0.00 0.00 0.10 74 971.9
20260509180920 61 201 4.0 4.0 0.00 0.00 0.10 76 972.2
20260509175921 60 186 4.0 4.0 0.00 0.00 0.10 78 972.2
20260509174921 59 154 4.0 4.0 0.00 0.00 0.10 80 972.2
20260509171920 59 141 2.0 2.0 0.00 0.00 0.10 84 972.2
20260509171421 58 110 1.0 1.0 0.00 0.00 0.10 85 972.6
20260509163953 57 180 2.0 2.0 0.00 0.00 0.10 88 972.2
20260509162453 56 195 3.0 3.0 0.00 0.00 0.10 89 972.2
20260509161953 56 191 5.0 5.0 0.00 0.00 0.10 90 972.6